This is the latest recevied weather packets stored in our database for station/object WV6L-13. If no packets are shown the sender has not sent any weather packets the latest 1 day(s).
| Time | Temp. | Humidity | Pressure | Rain* | Wind** | Luminosity | Snow |
|---|---|---|---|---|---|---|---|
| 1778064592 | 10.56° C | 45% | 926.5 hPa | - | 0.89 m/s, 159° | - | - |
| 1778064292 | 10.56° C | 46% | 926.3 hPa | - | 0.89 m/s, 135° | - | - |
| 1778063093 | 10° C | 46% | 926.1 hPa | - | 0.89 m/s, 164° | - | - |
| 1778062492 | 9.44° C | 48% | 926 hPa | - | 0.89 m/s, 154° | - | - |
| 1778062193 | 10° C | 47% | 925.9 hPa | - | 0.89 m/s, 180° | - | - |
| 1778061893 | 10° C | 48% | 926.2 hPa | - | 0.89 m/s, 175° | - | - |
| 1778061593 | 10° C | 47% | 925.9 hPa | - | 0.89 m/s, 84° | - | - |
| 1778061293 | 10° C | 47% | 925.9 hPa | - | 0.89 m/s, 109° | - | - |
| 1778060393 | 10.56° C | 46% | 925.6 hPa | - | 0.45 m/s, 32° | - | - |
| 1778060093 | 10.56° C | 47% | 925.7 hPa | - | 1.34 m/s, 121° | - | - |
| 1778059792 | 10° C | 47% | 925.7 hPa | - | 0.89 m/s, 63° | - | - |
| 1778059492 | 10.56° C | 46% | 925.7 hPa | - | 0.89 m/s, 34° | - | - |
| 1778059192 | 11.11° C | 45% | 925.7 hPa | - | 0.89 m/s, 352° | - | - |
| 1778058892 | 11.11° C | 45% | 925.5 hPa | - | 1.34 m/s, 315° | - | - |
| 1778057992 | 11.67° C | 44% | 925.7 hPa | - | 0.89 m/s, 82° | - | - |
| 1778057693 | 11.11° C | 45% | 925.5 hPa | - | 0.45 m/s, 90° | - | - |
| 1778057393 | 10.56° C | 48% | 925.5 hPa | - | 0.89 m/s, 96° | - | - |
| 1778057092 | 10.56° C | 47% | 925.5 hPa | - | 0.89 m/s, 120° | - | - |
| 1778056493 | 11.11° C | 46% | 925.3 hPa | - | 0.89 m/s, 95° | - | - |
| 1778056193 | 11.11° C | 46% | 925.3 hPa | - | 0.45 m/s, 96° | - | - |
| 1778055893 | 11.11° C | 46% | 925.3 hPa | - | 0.89 m/s, 86° | - | - |
| 1778055593 | 11.67° C | 46% | 925.3 hPa | - | 0.89 m/s, 85° | - | - |
| 1778055293 | 11.11° C | 45% | 925.3 hPa | - | 0.89 m/s, 114° | - | - |
| 1778054693 | 11.67° C | 46% | 925.1 hPa | - | 0.89 m/s, 100° | - | - |
| 1778054392 | 11.67° C | 45% | 925.1 hPa | - | 0.89 m/s, 170° | - | - |
* Rain since midnight (hover to see other rain measurements)
** Current wind speed in m/s (hover to see current wind gust speed)